Weather History for KIND - December, 2012

Change the Weather History Date:

Wednesday, December 26, 2012

  Actual Average Record
Temperature  
Mean Temperature 31 °F 29 °F  
Max Temperature 33 °F 36 °F 67 °F (1875)
Min Temperature 28 °F 22 °F -5 °F (1983)
Degree Days  
Heating Degree Days 34 36  
Month to date heating degree days 629 853  
Since 1 July heating degree days 1792 1895  
Cooling Degree Days 0 0  
Month to date cooling degree days 0 0  
Year to date cooling degree days 1534 1066  
Moisture  
Dew Point 27 °F    
Average Humidity 86    
Maximum Humidity 100    
Minimum Humidity 72    
Precipitation  
Precipitation 0.35 in 0.11 in 1.22 in (1904)
Month to date precipitation 2.30 2.67  
Year to date precipitation 37.72 41.94  
Snow  
Snow 7.50 in 0.30 in 9.50 in (1895)
Month to date snowfall 9.5 5.5  
Since 1 July snowfall 9.7 6.6  
Snow Depth 1.00 in    
Sea Level Pressure  
Sea Level Pressure 29.81 in    
Wind  
Wind Speed 20 mph (NNE)    
Max Wind Speed 31 mph    
Max Gust Speed 41 mph    
Visibility 4 miles    
Events Fog , Snow    
T = Trace of Precipitation, MM = Missing Value Source: NWS Daily Summary

Daily Weather History Graph

Daily Weather History Graph

Search for Another Location

Airport or City:

Trip Planner

Search our weather history database for the weather conditions in past years. The results will help you decide how hot, cold, wet, or windy it might be!

Date:

Astronomy

Dec. 26, 2012 Rise Set
Actual Time 8:04 AM EST 5:27 PM EST
Civil Twilight 7:34 AM EST 5:57 PM EST
Nautical Twilight 7:00 AM EST 6:31 PM EST
Astronomical Twilight 6:27 AM EST 7:04 PM EST
Moon 4:20 PM EST (12/26) 6:28 AM EST (12/26)
Length of Visible Light 10h 23m
Length of Day
9h 22m
Waxing Gibbous, 97% of the Moon is Illuminated
Dec 26
Waxing Gibbous
Dec 28
Full
Jan 4
Last Quarter
Jan 11
New
Jan 18
First Quarter

Hourly Weather History & Observations

Time (EST) Temp. Windchill Dew Point Humidity Pressure Visibility Wind Dir Wind Speed Gust Speed Precip Events Conditions
12:09 AM 32.0 °F 20.5 °F 26.6 °F 80% 30.02 in 10.0 mi ENE 18.4 mph 31.1 mph N/A   Overcast
12:54 AM 32.0 °F 22.1 °F 26.1 °F 79% 30.03 in 10.0 mi ENE 13.8 mph 26.5 mph N/A   Overcast
1:54 AM 32.0 °F 19.5 °F 26.1 °F 79% 29.96 in 10.0 mi NE 21.9 mph 31.1 mph N/A   Overcast
2:54 AM 32.0 °F 19.2 °F 26.1 °F 79% 29.93 in 10.0 mi ENE 23.0 mph 31.1 mph N/A   Overcast
3:54 AM 32.0 °F 20.5 °F 26.1 °F 79% 29.88 in 10.0 mi NE 18.4 mph 29.9 mph 0.00 in Snow Light Snow
4:54 AM 32.0 °F 19.8 °F 25.0 °F 75% 29.84 in 9.0 mi NE 20.7 mph 36.8 mph 0.00 in Snow Light Snow
5:54 AM 32.0 °F 19.8 °F 26.1 °F 79% 29.80 in 8.0 mi NE 20.7 mph 35.7 mph 0.00 in Snow Light Snow
5:59 AM 32.0 °F 18.6 °F 26.6 °F 80% 29.77 in 2.5 mi NE 25.3 mph 34.5 mph 0.00 in Snow Light Snow
6:01 AM 32.0 °F 19.8 °F 26.6 °F 80% 29.76 in 1.2 mi NE 20.7 mph 34.5 mph 0.00 in Snow Light Snow
6:08 AM 30.2 °F 16.5 °F 26.6 °F 86% 29.76 in 0.8 mi NE 24.2 mph 33.4 mph 0.00 in Snow Light Snow
6:20 AM 30.2 °F 17.1 °F 28.4 °F 93% 29.75 in 1.2 mi NE 21.9 mph 32.2 mph 0.01 in Snow Light Snow
6:54 AM 30.0 °F 16.6 °F 28.0 °F 92% 29.77 in 1.0 mi NE 23.0 mph 35.7 mph 0.03 in Snow Light Snow
7:05 AM 30.2 °F 16.5 °F 28.4 °F 93% 29.75 in 0.8 mi NNE 24.2 mph 31.1 mph 0.00 in Snow Light Snow
7:34 AM 30.2 °F 17.8 °F 28.4 °F 93% 29.73 in 0.2 mi NNE 19.6 mph 36.8 mph 0.01 in Fog , Snow Heavy Snow
7:54 AM 28.9 °F 14.8 °F 28.0 °F 96% 29.75 in 0.2 mi NNE 24.2 mph 32.2 mph 0.04 in Fog , Snow Heavy Snow
8:28 AM 28.4 °F 14.1 °F 28.4 °F 100% 29.71 in 0.1 mi NNE 24.2 mph 33.4 mph 0.06 in Fog , Snow Heavy Snow
8:54 AM 28.9 °F 13.5 °F 28.0 °F 96% 29.72 in 0.1 mi NNE 29.9 mph 39.1 mph 0.10 in Fog , Snow Heavy Snow
9:46 AM 28.4 °F 13.0 °F 28.4 °F 100% 29.70 in 0.2 mi NNE 28.8 mph 36.8 mph 0.12 in Fog , Snow Snow
10:04 AM 28.4 °F 14.4 °F 28.4 °F 100% 29.70 in 0.8 mi North 23.0 mph 31.1 mph 0.01 in Snow Light Snow
10:46 AM 28.4 °F 14.1 °F 28.4 °F 100% 29.71 in 0.5 mi NNE 24.2 mph 33.4 mph 0.03 in Fog , Snow Snow
10:54 AM 28.9 °F 14.3 °F 27.0 °F 92% 29.74 in 0.8 mi NNE 26.5 mph 34.5 mph 0.05 in Fog , Snow Snow
11:54 AM 28.9 °F 13.7 °F 27.0 °F 92% 29.72 in 0.5 mi North 28.8 mph 38.0 mph 0.01 in Fog , Snow Snow
12:24 PM 28.4 °F 14.4 °F 26.6 °F 93% 29.69 in 1.0 mi North 23.0 mph 35.7 mph 0.01 in Snow Light Snow
12:35 PM 28.4 °F 14.1 °F 26.6 °F 93% 29.69 in 0.8 mi North 24.2 mph 31.1 mph 0.01 in Snow Light Snow
12:54 PM 28.9 °F 15.4 °F 27.0 °F 92% 29.71 in 0.8 mi North 21.9 mph 32.2 mph 0.01 in Snow Light Snow
1:06 PM 28.4 °F 14.4 °F 28.4 °F 100% 29.69 in 0.5 mi North 23.0 mph 33.4 mph 0.00 in Fog , Snow Snow
1:38 PM 28.4 °F 14.1 °F 28.4 °F 100% 29.69 in 0.5 mi North 24.2 mph 33.4 mph 0.01 in Fog , Snow Snow
1:54 PM 28.9 °F 15.8 °F 28.0 °F 96% 29.73 in 0.8 mi North 20.7 mph 27.6 mph 0.01 in Fog , Snow Light Snow
2:10 PM 28.4 °F 15.4 °F 28.4 °F 100% 29.71 in 0.8 mi North 19.6 mph 31.1 mph 0.01 in Fog , Snow Light Snow
2:50 PM 30.2 °F 17.1 °F 28.4 °F 93% 29.73 in 1.2 mi North 21.9 mph 31.1 mph 0.01 in Fog , Snow Light Snow
2:54 PM 30.0 °F 17.2 °F 28.0 °F 92% 29.75 in 1.2 mi North 20.7 mph 27.6 mph 0.01 in Fog , Snow Light Snow
3:26 PM 30.2 °F 17.8 °F 26.6 °F 86% 29.75 in 1.2 mi North 19.6 mph 31.1 mph 0.00 in Snow Light Snow
3:54 PM 30.0 °F 17.2 °F 26.1 °F 85% 29.79 in 1.2 mi North 20.7 mph 33.4 mph 0.00 in Snow Light Snow
4:54 PM 28.9 °F 15.4 °F 26.1 °F 89% 29.83 in 1.2 mi North 21.9 mph 32.2 mph 0.00 in Snow Light Snow
5:42 PM 28.4 °F 14.4 °F 24.8 °F 86% 29.84 in 9.0 mi North 23.0 mph 31.1 mph N/A   Overcast
5:54 PM 28.9 °F 15.4 °F 25.0 °F 85% 29.87 in 9.0 mi NNW 21.9 mph 31.1 mph 0.00 in   Overcast
6:54 PM 28.9 °F 16.5 °F 24.1 °F 82% 29.91 in 9.0 mi NNW 18.4 mph 24.2 mph 0.00 in   Overcast
7:54 PM 28.9 °F 16.5 °F 24.1 °F 82% 29.94 in 10.0 mi NNW 18.4 mph - N/A   Overcast
8:54 PM 28.0 °F 15.3 °F 24.1 °F 85% 29.96 in 10.0 mi NNW 18.4 mph - N/A   Overcast
9:54 PM 28.0 °F 16.1 °F 24.1 °F 85% 29.98 in 10.0 mi NW 16.1 mph - N/A   Overcast
10:54 PM 28.0 °F 15.7 °F 24.1 °F 85% 30.01 in 10.0 mi NW 17.3 mph - N/A   Overcast
11:54 PM 28.0 °F 16.5 °F 23.0 °F 81% 30.02 in 10.0 mi NW 15.0 mph - N/A   Overcast